Tracking 32139 objects as of 14-Nov-2025
HD Live streaming from Space Station
objects crossing your sky now

ONEWEB-0699

Track ONEWEB-0699 now!
10-day predictions
ONEWEB-0699 is classified as:


NORAD ID: 61605
Int'l Code: 2024-188M
Perigee: 1,227.2 km
Apogee: 1,230.5 km
Inclination: 87.9 °
Period: 109.9 minutes
Semi major axis: 7599 km
RCS: Unknown
Launch date: October 20, 2024
Source: United States (US)
Launch site: AIR FORCE WESTERN TEST RANGE (AFWTR)
Your satellite tracking list
Your tracking list is empty




NASA's NSSDC Master Catalog

Two Line Element Set (TLE):
1 61605U 24188M   25318.26915092  .00000246  00000-0  66831-3 0  9993
2 61605  87.8807  79.1001 0002122  85.4216 274.7153 13.10371717 55166
Source of the keplerian elements: AFSPC